Regional Weather Roundup
Issued by NWS

Home | Current Version | Previous Version | Text Only | Print | Product List | Glossary On
Versions: 1 2 3 4 5 6 7 8 9 10 11 12 13 14 15 16 17 18 19 20 21 22 23 24 25 26 27 28 29 30 31 32 33 34 35 36 37 38 39 40 41 42 43 44 45 46 47 48 49 50
000
ASUS43 KMPX 152110
RWRMN
WEATHER ROUNDUP FOR MINNESOTA
NATIONAL WEATHER SERVICE TWIN CITIES/CHANHASSEN MN
400 PM CDT MON SEP 15 2014


NOTE: "FAIR" INDICATES FEW OR NO CLOUDS BELOW 12,000 FEET WITH NO
SIGNIFICANT WEATHER AND/OR OBSTRUCTIONS TO VISIBILITY. N/A MEANS
CURRENT SKY AND/OR WEATHER CONDITIONS ARE NOT AVAILABLE.

MNZ060>063-068>070-152200-
   Twin Cities Metro

CITY           SKY/WX    TMP DP  RH WIND       PRES   REMARKS
TWIN CITIES    FAIR      61  36  39 NW7       30.19F
ST PAUL        PTSUNNY   60  39  45 N9        30.20F
CRYSTAL        FAIR      62  35  36 NW12      30.19F
BLAINE         PTSUNNY   63  37  39 NW8       30.19F
LAKEVILLE      FAIR      61  39  44 NW9       30.19F
EDEN PRAIRIE   FAIR      62  36  37 NW8G16    30.19F
SOUTH ST PAUL  PTSUNNY   60  37  41 N8        30.19F
LAKE ELMO      CLOUDY    59  39  47 NW8       30.20F
$$
MNZ001>005-007-008-013>017-022>024-027-028-152200-
   Northwest Minnesota

CITY           SKY/WX    TMP DP  RH WIND       PRES   REMARKS
BEMIDJI        FAIR      58  33  37 W13       30.17F
HALLOCK        MOSUNNY   64  30  27 NW3       30.09F
ROSEAU         SUNNY     63  30  29 W8        30.12F
WARROAD        SUNNY     61  39  44 SW8       30.12F
THIEF RVR FALL MOSUNNY   61  36  39 W9        30.14F
CROOKSTON      PTSUNNY   64  37  36 W15       30.15F
FOSSTON        PTSUNNY   63  41  45 W8G17     30.17F
DETROIT LAKES  FAIR      61  34  36 W7        30.20F
MOORHEAD       FAIR      64  27  24 NW7       30.19F
PARK RAPIDS    FAIR      60  31  33 NW9       30.18F
MAHNOMEN       CLOUDY    60  36  40 W3        30.17F
$$
MNZ006-009>011-018-025>026-152200-
   North Central Minnesota

CITY           SKY/WX    TMP DP  RH WIND       PRES   REMARKS
BAUDETTE       SUNNY     61  34  36 W8        30.12F
FLAG ISLAND    CLOUDY    59  34  38 W10       30.08F
INTL FALLS     MOSUNNY   60  35  39 W12G20    30.11F
WASKISH        PTSUNNY   59  39  47 SW10      30.15F
BIG FORK       MOSUNNY   61  32  33 W8G16     30.16F
LONGVILLE      FAIR      59  34  38 W9        30.18S
GRAND RAPIDS   FAIR      57  34  41 NW8       30.17F
CRANE LAKE     PTSUNNY   55  36  47 NW6       30.14F
ORR            PTSUNNY   61  34  36 W3        30.11F
COOK           MOSUNNY   55  36  47 NW6       30.15S
WALKER         FAIR      58  32  37 W8        30.17F
$$
MNZ012-019>021-037-152200-
   Northeast Minnesota

CITY           SKY/WX    TMP DP  RH WIND       PRES   REMARKS
DULUTH         FAIR      57  33  40 NW8       30.15F
ELY            MOSUNNY   55  36  47 NW7G18    30.12F
HIBBING        FAIR      57  34  41 W8        30.16F
EVELETH        FAIR      57  36  44 W10       30.15F
DULUTH HARBOR  FAIR      61  36  39 W9        30.16F
TWO HARBORS    FAIR      57  36  44 NW8       30.12F
SILVER BAY     FAIR      55  39  54 CALM      30.11S
GRAND MARAIS     N/A     61  37  41 VRB3      30.08F
G MARAIS ARPRT SUNNY     54  34  47 NW7       30.10S
$$
MNZ029>031-032-039>041-046>048-054>057-064-152200-
   West Central Minnesota

CITY           SKY/WX    TMP DP  RH WIND       PRES   REMARKS
FERGUS FALLS   FAIR      63  27  25 NW10      30.20F
WHEATON        FAIR      61  32  33 W6        30.23F
MORRIS         FAIR      63  32  31 NW3       30.21F
ALEXANDRIA     FAIR      59  33  37 NW7       30.22F
ELBOW LAKE     FAIR      60  33  37 NW5       30.21F
WADENA         FAIR      59  34  38 NW5       30.20S
GLENWOOD       FAIR      59  36  41 NW9       30.22F
APPLETON       FAIR      64  34  32 NW6       30.21F
BENSON         FAIR      63  37  39 N7        30.21F
ORTONVILLE     FAIR      61  30  31 N8        30.23S
MADISON        FAIR      63  36  36 N6        30.23F
WILLMAR        FAIR      63  36  36 W6        30.22F
$$
MNZ033>034-036-042>043-049>051-058-059-152200-
   Central Minnesota

CITY           SKY/WX    TMP DP  RH WIND       PRES   REMARKS
ST CLOUD       PTSUNNY   63  35  35 N14       30.19F
SAUK CENTRE    FAIR      59  35  41 W12       30.21F
PAYNESVILLE    FAIR      57  34  43 W7        30.21F
AITKIN         FAIR      61  34  36 W6        30.17F
PINE RIVER     FAIR      57  36  44 NW5       30.21F
BRAINERD       PTSUNNY   60  34  37 NW10      30.19F
STAPLES        FAIR      59  30  33 W9        30.19F
LONG PRAIRIE   FAIR      57  36  44 NW7G16    30.21F
LITTLE FALLS   FAIR      57  34  41 W6        30.20F
LITCHFIELD     FAIR      63  37  39 NW8       30.21F
BUFFALO        FAIR      58  36  42 W6        30.21F
MAPLE LAKE     FAIR      62  41  46 NW9       30.21F
$$
MNZ037-044-045-052-053-152200-
   East Central Minnesota

CITY           SKY/WX    TMP DP  RH WIND       PRES   REMARKS
PRINCETON      PTSUNNY   63  37  39 CALM      30.20F
MORA           FAIR      55  36  47 NW10G20   30.21S
CAMBRIDGE      FAIR      61  41  48 NW7       30.18F
RUSH CITY      PTSUNNY   59  37  44 NW7G17    30.19F
MOOSE LAKE     FAIR      57  32  38 N8        30.16F
HINCKLEY       MOCLDY    59  36  41 W6        30.18S
CLOQUET        PTSUNNY   57  30  35 W13       30.16F
MCGREGOR       PTSUNNY   59  34  38 W7G17     30.18F
$$
MNZ071>073-080-081-089-090-097-098-152200-
   Southwest Minnesota

CITY           SKY/WX    TMP DP  RH WIND       PRES   REMARKS
MONTEVIDEO     FAIR      64  39  39 NW8       30.23F
GRANITE FALLS  FAIR      61  39  43 W8        30.24S
CANBY          FAIR      61  37  40 W6        30.24F
MARSHALL       FAIR      61  36  39 NW9       30.22F
REDWOOD FALLS  FAIR      62  37  39 NW9       30.21F
OLIVIA         FAIR      61  36  39 NW8       30.21F
PIPESTONE      FAIR      59  36  41 NW7       30.24F
WINDOM         FAIR      61  37  41 N9        30.23S
WORTHINGTON    FAIR      59  37  44 NW7       30.24F
JACKSON        PTSUNNY   61  37  41 VRB9G17   30.23F
TRACY          FAIR      61  41  47 N10       30.23F
SLAYTON        FAIR      57  36  44 CALM      30.24F
$$
MNZ065>067-074>077-082>085-091>093-152200-
   South Central Minnesota

CITY           SKY/WX    TMP DP  RH WIND       PRES   REMARKS
MANKATO        PTSUNNY   61  36  39 N6G16     30.21S
NEW ULM        FAIR      61  41  48 NW13      30.21F
ST JAMES       FAIR      61  36  39 N9        30.23F
FAIRMONT       FAIR      63  36  36 N13G18    30.22S
GLENCOE        FAIR      61  35  38 NW9       30.20F
FARIBAULT      FAIR      63  37  39 NW7       30.21S
OWATONNA       FAIR      61  41  48 NW10      30.20S
WASECA         PTSUNNY   57  36  44 N8        30.22F
ALBERT LEA     FAIR      61  39  44 NW7       30.20S
$$
MNZ078>079-086>088-094>096-152200-
   Southeast Minnesota

CITY           SKY/WX    TMP DP  RH WIND       PRES   REMARKS
ROCHESTER      FAIR      61  42  49 N10G16    30.19F
RED WING       PTSUNNY   61  39  44 NW7       30.18S
STANTON        FAIR      61  42  50 NW7       30.18F
DODGE CENTER   PTSUNNY   57  43  58 N10       30.19F
WINONA         CLOUDY    59  46  63 NW6       30.17F
AUSTIN         PTSUNNY   57  43  58 N10       30.19F
PRESTON        PTSUNNY   58  49  72 N14       30.18F
$$
ABBREVIATIONS USED IN REMARKS
   TC - TEMPERATURES IN CELSIUS
  WCI - WIND CHILL INDEX
   HX - HEAT INDEX
  VSB - VISIBILITY
$$


USA.gov is the U.S. government's official web portal to all federal, state and local government web resources and services.